Location: Spruce Knob
(38.6995°N, 79.5330°W)
Time: 15:06:52
(UTC-05:00)

Transit 4A - Visible Passes

Search period start: 25 January 2022 00:00
Search period end: 04 February 2022 00:00
Orbit: 863 x 981 km, 66.8° (Epoch: 25 January)

Date Brightness Start Highest point End Pass type
(mag) Time Alt. Az. Time Alt. Az. Time Alt. Az.
25 Jan 10.7 17:54:15 10° NW 17:59:19 25° WSW 18:04:22 10° SSW visible
26 Jan 11.1 05:30:30 10° ESE 05:32:47 12° E 05:35:06 10° ENE visible
26 Jan 11.1 18:04:34 10° WNW 18:08:19 16° WSW 18:12:03 10° SW visible
27 Jan 10.5 05:37:32 10° SSE 05:41:45 20° ESE 05:46:01 10° ENE visible
28 Jan 9.8 05:45:37 10° SSE 05:50:46 31° ESE 05:56:02 10° NE visible
29 Jan 8.9 05:54:11 10° S 05:59:51 47° ESE 06:05:44 10° NE visible
30 Jan 8.2 06:03:06 10° SSW 06:09:02 72° ESE 06:15:13 10° NNE visible
31 Jan 10.6 04:29:35 10° SE 04:32:47 15° ESE 04:36:01 10° ENE visible
31 Jan 7.8 06:12:18 10° SSW 06:18:18 78° WNW 06:24:32 10° NNE visible
01 Feb 10.0 04:37:09 10° SSE 04:41:45 23° ESE 04:46:28 10° NE visible
01 Feb 8.0 06:21:46 10° SW 06:27:39 53° WNW 06:33:45 10° NNE visible
02 Feb 9.3 04:45:25 10° S 04:50:48 36° ESE 04:56:22 10° NE visible
02 Feb 8.4 06:31:32 10° WSW 06:37:06 37° NW 06:42:51 10° NNE visible
03 Feb 8.5 04:55:48 20° S 04:59:56 55° ESE 05:05:58 10° NE visible
03 Feb 8.9 06:41:37 10° WSW 06:46:38 26° NW 06:51:49 10° N visible
